Location: Berlina
(1.5677°N, 75.6594°W)
Time: 18:48:54
(UTC+00:00)

Daily predictions for brighter satellites

Satellite Brightness Start Highest point End
(mag) Time Altitude Azimuth Time Altitude Azimuth Time Altitude Azimuth
Spelda 4.3 22:34:34 10° WSW 22:38:50 72° S 23:00:56 10° E
Cosmos 968 Rocket 3.5 23:03:49 10° SSW 23:08:56 87° WNW 23:14:02 10° N
SL-4 R/B 1.8 23:10:56 10° NNW 23:14:32 55° NE 23:18:20 10° SE
Landsat 7 3.8 23:09:54 10° S 23:14:34 88° WSW 23:19:12 10° NNW
SPOT 1/Viking Rocket 4.3 23:10:39 10° SE 23:15:07 30° ENE 23:19:34 10° NNE
SJ-6F 4.3 23:12:46 10° SSE 23:16:39 62° ENE 23:20:29 10° N
Ariane H10-3 2.9 23:16:07 10° WNW 23:18:16 27° N 23:21:13 10° ENE
SJ-12 4.0 23:14:37 10° S 23:18:25 72° WSW 23:22:12 10° NNW
Yuri Rocket 3.6 23:12:19 10° WSW 23:18:27 70° NNW 23:23:04 10° NE
ARIANE 5 DEB (SYLDA) 4.3 23:22:52 10° SSW 23:23:33 11° S 23:24:13 10° SSE
Tiangong -1.7 23:21:46 10° NNW 23:24:47 42° NE 23:27:48 10° ESE
SWIFT 2.6 23:27:24 10° SW 23:30:38 40° SSE 23:33:05 15° E
Cosmos 1833 Rocket 3.8 23:25:42 10° NNW 23:31:04 48° WSW 23:36:27 10° S
Cosmos 1741 Rocket 4.3 23:25:57 10° SSW 23:31:09 72° WNW 23:36:21 10° N
RESURS DK-1 2.9 23:29:23 10° N 23:32:57 32° ENE 23:36:32 10° SE
Cosmos 2279 Rocket 4.4 23:29:56 10° SSE 23:35:37 38° E 23:41:15 10° NNE
Cosmos 540 Rocket 3.4 23:32:21 10° N 23:37:23 67° ENE 23:42:25 10° SSE
Delta 2 Rocket 4.3 23:36:43 10° NNW 23:40:01 25° NE 23:41:14 21° ENE
Ariane H10+ 3.4 23:23:25 10° W 23:40:50 66° S 23:43:54 17° E
ARIANE 3 DEB 1.7 23:39:25 10° WNW 23:42:01 51° N 23:42:39 36° ENE
SJ-7 4.4 23:39:40 10° SSE 23:43:12 45° ENE 23:46:43 10° N
Cosmos 1763 Rocket 3.6 23:41:34 10° NNW 23:46:37 74° WSW 23:51:39 10° S
Cosmos 2026 Rocket 4.5 23:43:16 10° NNE 23:48:52 36° E 23:54:32 10° SSE
NOSS 3-2 (A) 4.2 23:47:57 10° SSE 23:51:19 19° ESE 23:51:44 19° ESE
Cosmos 1536 Rocket 3.7 23:48:58 10° N 23:53:19 76° W 23:57:38 10° S
NOAA 6 4.4 23:48:56 10° SE 23:53:42 38° ENE 23:58:25 10° N
